STARLINK-31200, 58862

Orbit data source: Space-Track

STARLINK-31200, 58862 is a payload satellite owned by SpaceX/Seattle (US) in LEO that was launched on Mon, 29 Jan 2024 UTC via an FALCON 9 launch vehicle from the Air Force Eastern Test Range (AFETR). Payload-class satellites include a variety of spacecraft equipped with specific instruments for various scientific and technological missions. These include communications satellites like Starlink; space stations such as the ISS; scientific satellites like the Hubble; Earth observation satellites from companies like Planet Labs, Umbra, and HawkEye 360; GPS; miniature CubeSats for education and research; and military/defense satellites.

Loading next visibility...
Identifier
58862, 2024-019K
Orbit
LEO
Country
Flag of USUS
Related business
Manufacturer
SpaceX/Seattle
Mission
Operational Commercial Communications
Bus & Motor
STARLINK V2M, Unknown motor
Mass
730 kg wet, ~700 kg dry
Launch date (UTC)
2024-01-29 (2 years ago)
Launch vehicle
FALCON 9
Launch site
Air Force Eastern Test Range (AFETR)
Object type
Payload
Rocket body
Debris
Shape & HBR
Box + 2 Pan, 17.7 m
Radar Cross Section
33.884 m², Large (>1 m²)

Expand to show TLE details & history
Last TLE update: 2 days ago

TLE from 2 days ago
0 STARLINK-31200
1 58862U 24019K   26171.02115966  .00001097  00000-0  49369-4 0  9994
2 58862  42.9998  30.9244 0001179 277.7975  82.2743 15.27584519134737
Epoch: 2026-06-20T00:30Z
TLE epoch observation values (Epoch: 2026-06-20T00:30:28.194Z)
Latitude
-0.00001°
Longitude
115.06515°
Altitude
482.702 km
Speed
7.626 km/s
True Right ascension
02h 03m 41s
True Declination
0° 00' 00"
Sunlit
Object was in daylight at epoch
Visualization orbit readout
Latitude
Unknown
Longitude
Unknown
Altitude
Unknown
Speed
Unknown
Apparent Right ascension
Unknown
Apparent Declination
Unknown
Sunlit
N/A
Visualization observer readout
Local Sidereal Time
21:27:13
Azimuth
Unknown
Elevation
Unknown
Doppler factor
Unknown
Orbital elements
Apogee altitude
485.79 km
Perigee altitude
484.172 km
Semi-major axis
6,863.118 km
Eccentricity
0.00012
Inclination
42.9998°
RAAN
30.9244°
Arg. of periapsis
277.7975°
True anomaly
82.28769°
Mean anomaly
82.2743°
Eccentric anomaly
82.28099°
Mean motion
3.81734 °/min
Orbital period
94.31 mins
BSTAR
0.000049369
Loading maneuver chart data...
Computing Atmospheric mass density...
Loading historical data...
Loading historical data...
Loading historical data...
Loading historical data...
Loading historical data...
Loading historical data...
Loading historical data...

Documentation

Showing up to 5 results
|